Regional Weather Roundup
Issued by NWS

Home | Current Version | Previous Version | Graphics & Text | Print | Product List | Glossary On
Versions: 1 2 3 4 5 6 7 8 9 10 11 12 13 14 15 16 17 18 19 20 21 22 23 24 25 26 27 28 29 30 31 32 33 34 35 36 37 38 39 40 41 42 43 44 45 46 47 48 49 50
193
ASUS45 KBOU 281607
RWRCO

WEATHER ROUNDUP FOR COLORADO
NATIONAL WEATHER SERVICE DENVER/BOULDER CO
1000 AM MDT SAT MAY 28 2016

NOTE: "FAIR" INDICATES FEW OR NO CLOUDS BELOW 12000 FEET WITH NO
SIGNIFICANT WEATHER AND/OR OBSTRUCTIONS TO VISIBILITY.

COZ001>005-013-030-031-281700-
...NORTHWEST COLORADO...

CITY           SKY/WX    TMP DP  RH WIND       PRES   REMARKS
CRAIG          FAIR      57  41  55 E6        30.11S
HAYDEN         FAIR      54  36  50 N3        30.12S
MEEKER         FAIR      56  39  53 CALM      30.12F
MOUNT WERNER   NOT AVBL
STEAMBOAT SPGS FAIR      52  39  60 CALM      30.13F
WALDEN         FAIR      50  32  50 SW6       30.17S
$$

COZ006>008-011-281700-
...WEST CENTRAL VALLEYS...

CITY           SKY/WX    TMP DP  RH WIND       PRES   REMARKS
GRAND JUNCTION FAIR      60  39  45 S6        30.08F
MONTROSE       FAIR      59  35  40 CALM      30.13F
EAGLE          MOSUNNY   50  37  62 CALM      30.18F
RIFLE          FAIR      56  37  49 VRB3      30.12F
DELTA          FAIR      61  36  39 CALM      30.12F
NUCLA          FAIR      59  32  36 CALM      30.15F
$$

COZ017>023-064>068-281700-
...SOUTHWEST COLORADO...

CITY           SKY/WX    TMP DP  RH WIND       PRES   REMARKS
DURANGO        FAIR      57  32  38 VRB3      30.14F
CORTEZ         FAIR      64  32  30 CALM      30.11S
PAGOSA SPRINGS FAIR      53  31  42 CALM      30.20S
TELLURIDE      FAIR      52  28  39 CALM      30.25S
WOLF CREEK PAS FAIR      36  25  64 SW8       30.38R
$$

COZ009-010-012-014-032>034-037-058>063-281700-
...CENTRAL COLORADO...

CITY           SKY/WX    TMP DP  RH WIND       PRES   REMARKS
ASPEN          FAIR      54  33  45 VRB5      30.17S
BUENA VISTA    FAIR      54  28  37 SE3       30.17F
COPPER MTN     NOT AVBL
BERTHOUD PASS  CLOUDY    27  18  69 N16G24    30.31R WCI  14
COTTONWOOD PAS FAIR      50  30  46 CALM      30.24S
GUNNISON       FAIR      46  36  66 CALM      30.23F
KREMMLING      FAIR      50  36  57 CALM      30.18F
LEADVILLE      FAIR      42  31  64 NW7       30.24R
MONARCH PASS   PTSUNNY   32  28  86 SW12G20   30.43R WCI  23
SALIDA         FAIR      55  34  44 NE3       30.23F
SUNLIGHT       FAIR      41  30  65 CALM      30.32S
WILKERSON PASS FAIR      37  27  65 W5        30.31R
$$

COZ069>075-281700-
...SAN LUIS VALLEY/SANGRE DE CRISTO MOUNTAINS...

CITY           SKY/WX    TMP DP  RH WIND       PRES   REMARKS
ALAMOSA        FAIR      50  38  63 CALM      30.19S
LA VETA PASS   FAIR      45  32  61 S6        30.27R
SAGUACHE       FAIR      52  34  50 S7        30.21S
$$

COZ035-036-038>040-281700-
...NORTHERN COLORADO FRONT RANGE...

CITY           SKY/WX    TMP DP  RH WIND       PRES   REMARKS
DENVER INTL AP FAIR      62  37  39 SE5       30.04S
DMNS CITY PARK   N/A     64  34  33 SE8G17    30.03F
AURORA         MOSUNNY   61  38  43 S9        30.05F
FRONT RANGE AP MOSUNNY   59  37  44 MISG      30.06R
ERIE MUNI ARPT FAIR      64  36  35 S10       30.02F
BOULDER MUN AP FAIR      63  39  42 E5        30.02F
CENTENNIAL     FAIR      60  33  36 S7        30.06S
BROOMFIELD     MOSUNNY   63  37  39 SE6       30.05R
FORT COLLINS   FAIR      61  43  51 S9        30.03S
LONGMONT       FAIR      63  43  48 CALM      30.04S
$$

COZ041-046-047-076>085-087-088-281700-
...PIKES PEAK/PALMER DIVIDE AND SOUTHERN FOOTHILLS...

CITY           SKY/WX    TMP DP  RH WIND       PRES   REMARKS
COLO. SPRINGS  FAIR      60  31  33 CALM      30.09F
A. F. ACADEMY  FAIR      61  32  33 S7        30.08F
SCHRIEVER AFB  NOT AVBL
ELLICOTT       FAIR     N/A N/A N/A CALM      30.08S
FALCON         FAIR      59  30  33 CALM      30.12S
FORT CARSON    FAIR      61  34  37 SW3       30.07F
LIMON          FAIR      61  41  47 NW6       30.06R
MONUMENT HILL  FAIR      54  34  47 S5        30.12F
TRINIDAD       FAIR      64  35  34 NW8       30.08S
$$

COZ042>045-048>051-090-091-281700-
...NORTHEAST COLORADO...

CITY           SKY/WX    TMP DP  RH WIND       PRES   REMARKS
GREELEY ARPT   FAIR      63  45  51 W5        30.03S
AKRON          FAIR      59  47  64 W13       30.02R
BURLINGTON     FAIR      62  46  55 W6        30.02R
WRAY           FAIR      64  46  52 SW3       29.99R
STERLING       FAIR      63  50  63 SW5       29.98S
HOLYOKE        FAIR      64  48  55 W6        29.97F
FORT MORGAN    FAIR      62  47  58 SW7       30.02S
$$

COZ086-089-092>099-281700-
...SOUTHEAST COLORADO...

CITY           SKY/WX    TMP DP  RH WIND       PRES   REMARKS
PUEBLO         FAIR      64  45  49 S3        30.04S
LA JUNTA       FAIR      63  45  51 W8        30.03S
LAMAR          FAIR      65  45  48 VRB5      30.01S
SPRINGFIELD      N/A     65  42  43 S5        30.04S
$$




USA.gov is the U.S. government's official web portal to all federal, state and local government web resources and services.